Terrace Airport
CYXT : now visible

Airfield :











YOU CAN JOIN US ON...

 
LOGIN :

Register | Disclaimer

   EN    FR    IT 

 









Legend :    VFR   Marginal VFR   IFR   Intensive IFR   Very Intensive IFR
Visi :
Ceiling :
>= 8 km
>= 3000ft
5 to 8 km
1000 to 3000 ft
1500m to 5 km
500 to 1000 ft
800 to 1500m
200 to 500 ft
< 800m
< 200 ft
Symbols :   Thunderstorms  Fog  Heavy snow  Heavy precipitations  Wind > 20 kt






- Airport Elevation : 713 ft
- IATA code : YXT


CYXT - Terrace

CURRENT METAR :
  • 100700Z 34002KT 10SM FEW006 SCT015 BKN025 03/02 A3019 RMK SF1SC3SC2 SLP234

EXPIRED METARs :
  • 100600Z 26007KT 10SM FEW006 SCT015 BKN040 04/03 A3018 RMK SF1SC2SC2 SLP232
  • 100500Z 30004KT 10SM FEW006 SCT015 BKN025 04/03 A3018 RMK SF1SC3SC3 SLP229

TAF TAF CYXT
Valid from the 10 at 07:00 until the 10 at 19:00 UTC


100638Z 1007/1019 34010KT P6SM FEW006 SCT015 BKN040
TEMPO 1007/1013 FEW006 BKN015
FM101300 01010KT P6SM FEW030 RMK NXT FCST BY 101300Z



MET'MAP, your aeronautical weather chart ! - Copyright ORBIFLY December 2007 - Disclaimer

ORBIFLY MET'MAP TEAM :

Programming & Development : Alexandra Zaïnal
Concept & original design : Baudouin d'Aumeries
Assistance for programming : Marc-Olivier Méhu
Technical & hardware support : Manuel Goepfert

Contact : metmap@orbifly.com




SOURCES & CREDITS :

   NOAA       Earth
Advisory